American Grand National - Inventory - 113

Station: Inventory - T Race

Distance: 1 Miles    

Release: 28-Jun-2024 12:00

Weather Release:    Arrival:

Wind at Release:     Wind at Arrival:

Temp at Release: °    Temp at Arrival: °

Lofts: 188

Birds: 904

Clocked: 897

Good Luck to Everyone!
Drops Pos Breeder Pigeon Name Color Sex Team Ent Arrival Speed To Win Elg Pd
1 Champion Loft - CA 75354-AU24-ARPU BB H 0 1 12:21:45.37 80.8966 00:00:00 Yes
2 Wildwood Loft - CA 0521-AU24-SFR BB C 0 1 12:21:45.78 80.8712 00:00:00 Yes
3 John L Young - CA 0007-AU24-JLY BCWF H 0 1 12:21:45.99 80.8582 00:00:01 Yes
4 SKYRUIZ LOFT - CA 0054-AU24-SKY BB H 0 1 12:21:46.20 80.8452 00:00:01 Yes
5 North Boys Syndicate - CA 0301-AU24-VASC GRZ C 0 1 12:21:46.40 80.8328 00:00:01 Yes
6 Bieche Loft - CA 4154-AU24-BIEC BC H 0 1 12:21:46.62 80.8192 00:00:01 Yes
7 April Loft And Nene Loft - CA 0034-AU24-APRI BB H 0 1 12:21:46.83 80.8062 00:00:01 Yes
8 Dino Dercole - CA 1012-AU24-SFR BBTK H 0 1 12:21:47.04 80.7932 00:00:02 Yes
9 Jiang TouLoft - TN 8815-AU24-TOU 🟥🟥🟥🟥🟥🟥 BB H 0 1 12:21:47.25 80.7803 00:00:02 Yes
10 K B Five 21 - CA 32858-AU24-JEDD BB H 0 1 12:21:47.46 80.7673 00:00:02 Yes
11 Hugo Amezcua - CA 9159-AU24-HAN BB H 0 1 12:21:47.67 80.7543 00:00:02 Yes
12 Baglady Loft - CA 26867-AU24-JEDD BB C 0 1 12:21:48.11 80.7272 00:00:03 Yes
13 K B Five 21 - CA 3474-AU24-VITA RCPD C 0 2 12:21:48.73 80.6889 00:00:03 Yes
14 Edz Loft - CA 0004-AU24-EDZM BB H 0 1 12:21:49.57 80.6372 00:00:04 Yes
15 Gold Star Loft - FL 2471-AU24-STON BCSP H 0 1 12:21:49.98 80.6119 00:00:05 Yes
16 Sun Loft - MA 77860-AU24-SUNL 🐲🐲🐲 BB H 0 1 12:21:51.04 80.5467 00:00:06 Yes
17 Longwinded - CA 0089-AU24-DINO BBSP H 0 1 12:21:52.08 80.4829 00:00:07 Yes
18 R M C Loft - CA 0316-PH24-RMC BB C 0 1 12:21:53.35 80.4051 00:00:08 Yes
19 Tian Loft - FL 0022-AU24-TIAN GRZ H 0 1 12:21:53.98 80.3665 00:00:09 Yes
20 Chano - CA 1728-AU24-VITA BC H 0 1 12:21:55.77 80.2572 00:00:10 Yes
21 Liang Hong Liang - CA 2709-AU24-GSF BC C 0 1 12:21:55.98 80.2444 00:00:11 Yes
22 ACEVES-PELLIZZARI - CA 0293-AU24-WSJ DC H 0 1 12:21:56.40 80.2188 00:00:11 Yes
23 Padilla-Martin - CA 1407-AU24-MTZ BB H 0 1 12:21:58.14 80.1129 00:00:13 Yes
24 CODD CARINI - OR 24350-AU24-ARPU BCTK H 0 1 12:21:58.35 80.1001 00:00:13 Yes
25 QFL - CA 0783-AU24-QFL FAVORIET BC H 0 1 12:22:00.68 79.9588 00:00:15 Yes
26 A&r Loft - AZ 0448-AU24-DUTC BC C 0 1 12:22:01.33 79.9195 00:00:16 Yes
27 Royal Flush Flyers - CA 3102-AU24-GSF HOME TONIGHT BB C 0 1 12:22:01.54 79.9068 00:00:16 Yes
28 Gold Star Loft - FL 4679-AU24-GHC BBWF H 0 2 12:22:02.35 79.8578 00:00:17 Yes
29 Ken Chin - CA 0053-AU24-H&J BC H 0 1 12:22:03.10 79.8126 00:00:18 Yes
30 DADS LOFT - CA 0130-AU24-LKPC BBWF C 0 1 12:22:04.54 79.7258 00:00:19 Yes
31 Mirna Jimenez - 0361-AU24-WSJ RC C 0 1 12:22:05.99 79.6386 00:00:21 Yes
32 Mendoza Loft - CA 1569-AU24-WSJ BB H 0 1 12:22:06.40 79.6140 00:00:21 Yes
33 Kereru Whare - NC 0049-AU24-BISH 🐦 FeanixBio.com RB C 0 1 12:22:07.85 79.5271 00:00:22 Yes
34 Savers Family Loft - CA 0491-AU24-BPRC BCWF H 0 1 12:22:08.88 79.4654 00:00:24 Yes
35 North Boys Syndicate - CA 4122-AU24-SWI BB H 0 2 12:22:09.74 79.4140 00:00:24 Yes
36 Francos Classic One Loft - CA 0143-AU24-BPRC BB H 0 1 12:22:11.29 79.3216 00:00:26 Yes
37 C H P - CA 1010-AU24-FORT BC C 0 1 12:22:11.50 79.3090 00:00:26 Yes
38 Chen Dong Loft - NY 38452-AU24-ARPU BC C 0 1 12:22:13.04 79.2174 00:00:28 Yes
39 Sun Loft - MA 77818-AU24-SUNL 🐲🐲🐲 BB H 0 2 12:22:13.66 79.1806 00:00:28 Yes
40 Dean And Fred - CA 5506-AU24-JEDD BCWF H 0 1 12:22:14.27 79.1444 00:00:29 Yes
41 Sunday Loft - CA 45524-AU24-JEDD BB H 0 1 12:22:14.67 79.1207 00:00:29 Yes
42 Checos EBG Loft - CA 0351-AU24-WSJ DC H 0 1 12:22:18.19 78.9126 00:00:33 Yes
43 Highland Loft - NY 3644-AU24-ARPU BB H 0 1 12:22:25.10 78.5072 00:00:40 Yes
44 Nemeth Family Loft - CA 1401-AU24-NEME Pilot BB C 0 1 12:22:26.84 78.4057 00:00:41 Yes
45 Liang Hong Liang - CA 3279-AU24-GSF BC H 0 2 12:22:27.23 78.3831 00:00:42 Yes
46 April Loft And Nene Loft - CA 0046-AU24-APRI BC H 0 2 12:22:27.49 78.3679 00:00:42 Yes
47 Mrs.Rmc Loft - CA 0364-AU24-RMC LTBC H 0 1 12:22:31.56 78.1319 00:00:46 Yes
48 K B Five 21 - CA 24122-AU24-KB BC H 0 3 12:22:33.11 78.0424 00:00:48 Yes
49 Martin Tengco - CA 3440-AU24-VITA BCPD C 0 1 12:22:33.75 78.0055 00:00:48 Yes
50 Sun Loft - MA 77852-AU24-SUNL 🐲🐲🐲 BC C 0 3 12:22:34.17 77.9813 00:00:49 Yes
51 Mike Jardine - OR 0499-AU24-JARD BBPD C 0 1 12:22:36.12 77.8692 00:00:51 Yes
52 CFL8LAV LOFT - CA 3626-AU24-GSF GRZ C 0 1 12:22:37.03 77.8170 00:00:52 Yes
53 Black Starr Loft - CA 1689-AU24-FOYS BSL 24 1689 BBSP C 0 1 12:22:37.44 77.7935 00:00:52 Yes
54 Enrique Valdez - CA 25707-AU24-ARPU BB H 0 1 12:22:40.40 77.6242 00:00:55 Yes
55 Gomez Loft 2 - CA 0197-AU24-HAY BBPD H 0 1 12:22:41.33 77.5712 00:00:56 Yes
56 Quest - Any Given Day Loft - TX 74282-AU24-ARPU BB H 0 1 12:22:46.90 77.2551 00:01:02 Yes
57 Van Gruen Loft - CA 0420-AU24-SD BBPD H 0 1 12:22:47.11 77.2432 00:01:02 Yes
58 Chano - CA 1732-AU24-VITA BB H 0 2 12:22:49.59 77.1034 00:01:04 Yes
59 Frank Gonsalves - CA 0409-AU24-AA BCTK H 0 1 12:22:51.57 76.9921 00:01:06 Yes
60 Sal and Dino - CA 0047-AU24-SFR BB H 0 1 12:22:52.45 76.9427 00:01:07 Yes
61 Oddiebeng Loft - CA 24729-AU24-JEDD BCSP H 0 1 12:22:54.23 76.8430 00:01:09 Yes
62 Ken Chin - CA 0566-AU24-HAY BCWF H 0 2 12:22:54.64 76.8201 00:01:09 Yes
63 Goldenkingpins GKP ALLSTARS - CA 41149-AU24-MAN .50 Caliber BLK C 0 1 12:22:57.07 76.6846 00:01:12 Yes
64 Benson Farms - AL 24051-AU24-NESN BB H 0 1 12:23:01.87 76.4182 00:01:16 Yes
65 Nemeth Family Loft - CA 1422-AU24-NEME Mister BC C 0 2 12:23:05.90 76.1960 00:01:21 Yes
66 Guinguiry and Rooster 1 - CA 33457-AU24-JEDD BB H 0 1 12:23:06.12 76.1839 00:01:21 Yes
67 Shewmaker.Com - CA 4097-AU24-SHEW BB H 0 1 12:23:11.12 75.9101 00:01:26 Yes
68 Delao - Lopez - Quejado - Saenz - CA 0404-AU24-QUEJ BB H 0 1 12:23:15.35 75.6799 00:01:30 Yes
69 Edz Loft - CA 0020-AU24-EDZM BC H 0 2 12:23:16.68 75.6079 00:01:31 Yes
70 Wildwood Loft - CA 0523-AU24-SFR BB H 0 2 12:23:22.27 75.3065 00:01:37 Yes
71 BIRDHIGH RANCH LOFT - CA 5530-AU24-JEDD LTCK H 0 1 12:23:28.59 74.9686 00:01:43 Yes
72 A P C Loft - TX 0203-AU24-APC BB H 0 1 12:23:36.65 74.5421 00:01:51 Yes
73 S & S - CA 0377-AU24-S&S BB C 0 1 12:23:37.64 74.4900 00:01:52 Yes
74 Guinguiry and Rooster 1 - CA 33445-AU24-JEDD BB H 0 2 12:23:37.86 74.4784 00:01:52 Yes
75 Carini-Codd - OR 2404-AU24-CARI MLWF H 0 1 12:23:38.20 74.4606 00:01:53 Yes
76 Nemeth Family Loft - CA 1419-AU24-NEME Hero BB C 0 3 12:23:41.72 74.2762 00:01:56 Yes
77 SKYE LOFT - CA 0046-AU24-SKYE BC H 0 1 12:23:41.92 74.2658 00:01:57 Yes
78 Big Tree Loft - CA 1220-AU24-SFR BB H 0 1 12:23:42.34 74.2439 00:01:57 Yes
79 Jiang TouLoft - TN 8805-AU24-TOU 🟥🟥🟥🟥🟥🟥 BB H 0 2 12:23:43.41 74.1880 00:01:58 Yes
80 Gene And Eddie - CA 0126-AU24-GENE BC C 0 1 12:23:45.24 74.0928 00:02:00 Yes
81 Wildwood Loft - CA 0508-AU24-SFR BB H 0 3 12:23:46.80 74.0118 00:02:01 Yes
82 Chano - CA 1729-AU24-VITA BC H 0 3 12:23:50.82 73.8038 00:02:05 Yes
83 G S P Loft - Partridge - CA 1045-AU24-GSP BB H 0 1 12:23:52.42 73.7214 00:02:07 Yes
84 Silicon Valley Syndicate - CA 24072-AU24-SVS BC H 0 1 12:23:52.88 73.6977 00:02:08 Yes
85 Hi-Cal Connection - CA 0775-AU24-HICA BB H 0 1 12:23:53.09 73.6869 00:02:08 Yes
86 Padilla-Martin - CA 0044-AU24-EMAR BB C 0 2 12:23:54.27 73.6263 00:02:09 Yes
87 Salinas Team - CA 0618-AU24-WSJ BB H 0 1 12:23:54.48 73.6155 00:02:09 Yes
88 Darryl And Woody - CA 0270-AU24-BAK BB H 0 1 12:23:55.73 73.5514 00:02:10 Yes
89 Sun Loft - MA 0175-AU24-ADC 🐲🐲🐲 BB H 0 4 12:23:56.15 73.5299 00:02:11 Yes
90 Juan Guerrero - CA 0573-AU24-SOC BCWF H 0 1 12:23:56.94 73.4895 00:02:12 Yes
91 Checos EBG Loft - CA 0362-AU24-WSJ DCSP C 0 2 12:23:57.15 73.4788 00:02:12 Yes
92 S & S - CA 0361-AU24-S&S BB H 0 2 12:23:57.36 73.4680 00:02:12 Yes
93 House Of Paine - CA 0856-AU24-HOUS BC H 0 1 12:23:57.57 73.4573 00:02:12 Yes
94 De Lao-Nevarez-Fernandez - CA 4043-AU24-COOK BC H 0 1 12:23:58.32 73.4190 00:02:13 Yes
95 Barry Yu Loft - TX 2608-AU24-DENT BBSP H 0 1 12:24:02.04 73.2296 00:02:17 Yes
96 A P C Loft - TX 0201-AU24-APC BB H 0 2 12:24:03.86 73.1373 00:02:18 Yes
97 Olmos Family Loft - CA 2910-AU24-GSF BC H 0 1 12:24:05.46 73.0563 00:02:20 Yes
98 La Tuna Loft - CA 33450-AU24-JEDD BBPD H 0 1 12:24:06.29 73.0144 00:02:21 Yes
99 Sun Loft - MA 77859-AU24-SUNL 🐲🐲🐲 BCWF H 0 5 12:24:07.97 72.9297 00:02:23 Yes
100 Nemeth Family Loft - CA 1418-AU24-NEME Trent BBWF C 0 4 12:24:08.90 72.8829 00:02:24 Yes

There are 897 bird records

Note: These Race Results are unofficial and subject to change until verified by the Race Committee and declared final.

Ship Birds to:

American Grand National

c/o Carl & Tim Perry

22682 Williams Ave.

Hillmar CA 95324

209-321-5410

hayloftpigeon@aol.com

Click for Forecast for 95324 from weatherUSA